Theta_e
313 317 320 322 318 319 324 323 324 325 325 326 326 325 326 342 344 343 350 349 343 339 336 345 343 335 330 329 330 333 339 337 335 334 331 328 324 325 326 326 322 322 322 321 321 323 324 325 326
312 315 319 322 318 320 321 322 324 324 323 325 329 336 347 349 352 353 350 338 342 338 337 344 343 335 331 331 332 333 335 334 333 331 328 324 322 325 326 323 322 322 321 323 324 325 325 326 332
312 314 321 317 316 320 321 322 322 321 325 325 325 333 347 349 352 350 346 341 336 336 337 344 343 337 334 332 333 333 333 333 332 330 325 322 323 325 326 322 322 322 323 325 325 325 326 333 337
314 316 319 317 319 318 320 321 320 321 323 324 324 336 348 351 351 351 344 348 336 334 336 344 343 339 336 333 333 333 333 332 331 329 322 322 324 325 325 322 323 322 323 325 325 324 325 330 336
316 317 312 316 317 317 318 320 321 319 321 322 324 345 345 349 352 351 351 348 337 334 342 344 344 339 336 333 334 332 332 331 329 325 322 323 325 326 324 323 323 322 323 325 325 324 324 325 329
313 314 312 313 316 317 317 320 320 320 321 322 324 328 341 347 351 351 352 350 338 334 341 345 344 341 335 332 334 331 332 329 327 324 323 323 325 326 324 324 323 322 322 325 325 324 324 324 325
309 307 310 313 314 316 317 319 319 320 320 321 322 329 336 343 351 352 350 345 339 338 341 345 344 342 335 332 333 332 334 333 327 324 324 324 324 323 324 324 323 321 321 323 325 324 324 323 323
313 305 309 311 311 312 315 317 319 320 320 321 323 324 326 328 347 353 349 342 338 340 341 343 345 343 338 333 334 333 335 336 332 326 323 324 323 323 324 324 323 321 320 321 324 324 324 323 322
312 305 307 308 311 311 316 313 315 317 319 319 319 323 327 329 344 352 351 344 340 339 340 340 344 344 339 333 334 335 335 336 337 335 326 324 325 326 325 325 323 322 320 320 322 324 324 323 322
306 304 306 306 308 310 312 313 313 315 316 315 318 321 326 328 334 350 350 350 344 340 341 341 341 343 342 335 334 337 337 337 337 337 337 330 324 323 324 324 323 322 321 321 321 322 323 323 322
306 306 305 308 311 312 312 312 313 313 313 315 317 319 320 327 327 341 349 350 349 345 343 341 340 342 342 340 336 336 339 340 340 339 338 338 336 329 324 324 323 322 322 321 322 322 322 322 321
308 307 309 308 310 313 310 313 313 314 315 317 316 317 319 325 326 337 339 332 349 348 348 340 339 340 341 340 340 338 338 339 339 340 341 342 340 338 335 328 324 323 322 322 322 322 322 322 321
307 308 310 312 311 311 311 311 311 313 315 316 316 316 318 324 322 322 325 328 331 336 349 345 341 337 336 337 335 337 340 339 338 336 335 338 341 341 340 337 331 326 323 322 321 322 322 322 321
311 311 312 313 313 311 310 310 312 314 316 315 316 319 322 326 325 326 325 325 326 323 340 349 348 344 339 337 336 336 337 336 340 340 339 335 328 333 333 336 339 336 330 325 323 321 321 321 321
313 313 311 312 312 310 311 310 311 316 316 315 318 321 325 326 324 326 327 327 325 322 325 340 339 345 347 341 336 338 339 337 336 341 341 338 337 331 330 335 327 336 341 337 331 326 322 321 320
313 311 312 312 312 312 312 312 312 317 314 316 318 319 319 323 328 327 325 320 322 322 322 323 331 334 340 340 334 336 339 340 342 341 342 338 336 336 335 337 334 329 335 342 341 337 332 326 322
308 312 312 312 312 312 312 313 313 317 315 316 317 318 318 318 318 325 323 322 324 321 320 323 325 330 339 342 340 338 341 340 339 342 342 337 334 334 336 341 340 339 336 338 341 341 340 337 332
312 312 313 312 314 314 312 311 311 314 315 316 318 317 317 317 317 317 325 324 322 320 320 321 322 325 332 344 342 341 339 338 337 340 338 335 337 338 337 336 341 342 342 340 341 341 340 339 337
313 313 313 313 313 314 313 312 312 312 311 313 316 317 317 315 316 316 318 319 319 318 319 319 322 323 326 332 340 341 335 336 341 341 338 338 336 334 334 333 343 344 343 341 342 342 341 341 340
312 313 313 313 313 312 313 313 312 312 314 313 314 316 317 317 316 316 317 317 318 318 318 319 322 324 331 333 335 337 338 341 341 342 341 340 337 333 334 342 343 339 331 340 339 336 336 340 341
313 313 313 314 314 314 314 313 313 314 315 317 317 319 319 318 317 317 318 319 319 319 320 324 324 328 330 333 337 339 340 338 335 336 338 341 337 339 340 341 341 338 330 332 330 331 334 335 336
314 314 315 315 314 313 314 314 312 313 314 315 315 317 318 318 316 320 323 325 324 322 322 324 326 326 325 327 331 332 328 329 327 326 331 335 338 341 341 342 341 338 338 338 334 333 331 334 331
315 315 315 314 313 313 314 312 312 313 316 316 315 319 320 320 321 322 322 322 322 322 323 324 324 325 326 326 327 327 327 327 329 328 328 331 330 330 329 329 330 335 337 336 336 335 335 336 333
317 315 312 311 311 313 314 313 313 317 318 317 316 317 316 317 318 318 317 317 318 318 318 319 319 319 318 318 318 319 319 318 319 320 320 322 322 322 321 321 322 322 325 327 327 328 329 332 336
316 314 315 315 314 316 318 319 315 318 316 315 314 313 314 315 315 315 315 316 316 316 316 317 317 316 316 316 316 316 315 315 315 316 316 315 315 315 315 315 315 315 316 318 319 320 320 321 323
319 315 317 318 318 318 320 321 320 315 312 312 312 311 312 312 313 313 313 313 313 314 314 315 316 316 316 316 316 315 315 315 316 315 315 315 315 315 315 314 315 315 316 315 317 319 320 320 320
319 319 316 320 318 318 318 320 316 312 312 311 310 311 311 311 311 311 311 311 312 312 312 313 313 313 313 313 313 314 314 314 315 315 315 315 315 316 316 316 316 318 318 316 317 318 319 319 319
318 316 320 317 321 322 318 319 317 314 312 310 309 309 310 309 309 309 308 309 309 310 310 311 311 312 313 313 313 313 314 313 313 312 313 312 313 313 314 315 316 316 320 319 318 317 317 317 317
318 318 316 316 314 319 318 316 313 312 310 309 308 309 309 308 308 307 308 309 310 310 311 312 312 312 313 313 313 312 312 312 312 311 311 310 310 310 310 311 313 315 319 319 318 316 316 315 316
316 316 316 318 320 311 310 314 310 308 308 308 309 308 308 307 307 307 308 308 308 310 311 311 311 312 312 312 312 313 313 312 311 310 310 309 309 308 308 308 309 311 314 317 319 316 315 315 315
Wind_Speed
10 10 7 3 4 4 3 6 2 6 8 11 28 9 7 6 4 4 5 14 24 31 32 32 31 29 27 25 24 22 21 20 17 16 15 14 15 16 17 17 16 16 15 15 15 15 14 14 16
9 8 4 3 4 1 5 3 3 3 14 23 14 18 2 2 7 8 6 15 26 30 32 32 31 29 27 25 23 22 21 19 17 16 15 15 16 18 19 18 17 16 16 16 15 15 15 15 14
7 8 5 4 4 7 4 3 4 10 15 15 13 18 7 8 11 0 12 14 23 30 31 32 31 29 27 25 23 21 20 19 18 16 15 17 18 19 19 18 18 17 17 17 15 15 15 16 15
7 6 5 4 7 6 5 3 7 14 6 16 29 7 6 10 3 5 13 9 22 30 30 32 30 28 26 25 22 21 20 19 18 16 16 18 19 20 20 19 18 17 17 17 15 14 14 14 13
8 4 4 2 5 5 6 9 16 10 11 20 26 6 10 6 7 5 9 10 22 29 30 31 30 28 26 24 22 21 20 18 17 16 18 20 21 21 20 19 17 17 17 16 15 14 14 13 12
4 4 4 4 4 4 7 9 5 9 20 15 16 17 8 6 5 3 10 14 23 24 28 29 29 27 25 24 22 21 19 17 16 16 18 21 21 21 20 19 17 17 16 16 15 14 13 12 11
7 4 5 4 4 3 5 6 3 8 16 14 13 5 5 5 3 4 6 15 26 24 26 29 28 26 25 23 22 21 19 16 16 17 19 21 22 21 20 18 17 16 16 17 16 15 14 12 11
7 5 5 5 5 7 7 4 9 9 12 12 7 4 5 7 4 5 8 15 22 22 24 27 28 27 25 24 22 21 19 17 15 16 18 20 21 21 20 18 17 16 15 16 16 15 14 13 12
8 5 3 6 6 6 5 4 6 10 22 23 17 11 6 11 5 8 11 16 20 22 23 25 26 25 25 24 22 21 21 19 18 16 17 19 19 20 19 19 18 17 17 17 17 17 16 14 14
5 5 10 8 7 5 6 13 18 7 14 13 25 15 12 10 7 12 13 17 19 22 23 26 27 27 25 25 25 24 23 22 20 19 17 16 17 18 19 19 19 18 18 18 18 18 17 17 15
6 6 6 7 14 12 14 8 21 8 10 19 19 23 17 14 6 11 13 17 20 20 20 24 28 28 28 28 27 27 26 24 23 22 21 19 19 20 21 21 20 19 19 19 20 20 19 18 17
3 10 10 4 14 8 6 9 7 19 22 30 29 29 21 17 16 15 11 7 18 22 19 20 27 28 29 26 27 30 30 29 28 26 24 24 24 23 22 22 21 22 22 22 22 22 21 20 19
4 5 12 23 19 17 15 16 12 18 32 33 32 26 21 14 17 13 11 7 11 16 24 22 24 29 28 27 19 29 33 32 31 30 27 26 27 27 25 25 25 25 25 25 25 25 25 24 23
7 12 12 10 15 10 7 8 5 27 29 29 23 13 17 25 34 26 12 12 19 16 22 26 26 27 33 31 31 30 28 31 34 33 30 27 24 29 29 29 28 28 28 27 27 28 28 28 27
6 5 7 5 4 4 13 8 11 33 32 24 20 13 15 16 31 27 31 32 20 20 20 26 26 28 32 32 30 35 36 28 33 34 32 31 30 26 30 34 29 30 31 30 30 30 31 32 31
3 4 4 6 2 2 10 8 9 21 24 20 22 24 19 14 27 24 21 9 14 24 26 26 31 32 34 35 32 36 38 37 35 36 36 32 27 29 32 38 33 29 33 34 33 33 33 35 36
7 2 3 8 2 2 3 7 9 14 16 22 23 23 22 22 19 24 17 22 28 33 26 27 33 36 39 40 40 38 37 33 34 36 35 28 26 27 36 38 31 33 33 35 37 36 35 37 38
2 2 3 5 4 1 6 11 11 17 16 22 20 18 18 19 18 17 25 23 28 33 27 19 17 30 36 39 40 36 34 36 34 34 33 32 39 38 33 30 30 34 35 35 37 38 37 38 39
2 2 5 9 8 3 6 5 11 18 15 14 18 14 14 8 9 13 20 25 27 19 16 15 18 17 24 32 36 38 39 34 32 35 33 36 35 28 29 31 26 24 31 29 30 31 32 36 39
5 5 8 9 5 6 6 8 6 3 1 4 7 9 4 4 6 7 7 15 14 15 13 12 14 15 17 21 26 27 26 27 27 35 38 32 31 33 32 32 36 25 37 33 32 32 33 37 37
6 5 7 9 6 2 4 6 5 3 5 10 7 4 5 6 7 7 10 15 16 18 20 18 16 14 12 12 14 17 20 21 23 27 30 31 29 32 34 30 33 37 40 46 41 52 41 38 37
6 11 11 6 3 4 0 4 6 4 4 7 12 9 6 4 6 12 13 14 11 9 11 11 8 7 9 10 11 13 14 17 20 22 23 26 28 27 28 27 26 27 27 32 41 52 46 48 50
9 3 7 4 4 2 2 4 6 5 6 7 7 17 22 25 25 24 22 20 19 17 15 11 9 5 3 1 4 8 11 14 18 21 24 25 24 24 24 24 23 25 26 28 28 34 38 42 46
1 2 7 5 3 1 3 4 5 2 1 3 2 14 17 18 17 16 13 14 13 9 8 6 5 4 4 4 5 8 10 13 17 20 23 25 26 26 26 26 27 25 24 26 27 28 31 34 36
3 5 2 2 2 5 2 2 7 5 3 6 6 13 17 18 17 16 14 11 9 7 5 4 4 6 7 9 11 14 16 19 21 24 27 29 31 32 33 34 34 35 33 32 31 32 33 33 33
2 5 5 5 4 3 1 4 5 6 17 19 22 23 22 21 17 14 12 10 7 3 0 4 7 9 10 13 16 18 21 25 28 31 34 35 37 38 38 37 35 35 35 36 33 31 31 32 35
1 3 2 6 3 3 3 3 3 7 8 12 14 21 19 16 13 11 9 10 10 10 11 13 14 16 19 21 23 25 26 29 32 35 37 39 40 41 41 40 39 33 36 38 36 36 34 31 31
4 5 2 3 4 4 4 3 4 4 6 5 6 11 11 10 9 10 12 15 16 18 20 22 25 27 30 32 34 37 39 40 41 42 43 43 43 40 39 39 41 40 37 35 36 39 39 38 36
2 3 4 4 3 5 2 5 3 6 7 7 6 7 7 8 11 14 17 19 21 23 25 27 29 31 33 34 36 38 40 41 42 44 45 46 46 45 44 40 37 38 42 39 36 36 36 37 37
3 5 5 4 5 2 3 5 4 5 5 7 4 4 6 7 12 16 19 23 26 28 29 29 31 30 29 31 32 34 35 37 39 40 41 41 42 42 44 46 44 39 37 41 40 37 38 39 37
Wind_Direction
241 244 273 342 51 57 252 257 234 324 2 336 307 283 238 287 239 238 292 180 175 175 175 175 174 176 178 179 179 178 177 175 174 172 173 173 168 160 156 155 152 149 147 144 140 136 135 134 134
219 219 214 94 94 107 259 236 247 359 332 323 323 338 317 274 320 284 147 163 166 175 174 175 176 178 178 179 181 182 181 181 180 178 180 179 171 164 161 160 156 151 148 146 143 139 139 140 137
193 183 143 115 143 205 232 186 350 334 359 358 341 328 319 332 344 169 166 161 174 179 176 176 178 179 179 181 183 184 183 182 180 181 185 179 172 169 167 163 159 156 153 152 147 145 144 141 137
154 130 93 109 214 260 244 307 0 340 348 333 331 319 338 345 329 316 177 172 174 178 177 178 180 181 181 183 185 186 184 183 182 184 184 181 176 174 172 169 166 162 160 158 155 152 151 152 148
148 127 84 160 249 267 275 294 322 324 309 321 330 305 303 350 330 267 208 209 180 178 178 180 181 182 183 184 186 186 183 182 186 186 183 182 180 179 178 177 174 170 168 166 164 162 161 164 160
111 106 88 223 253 259 284 268 301 299 299 317 330 323 293 347 338 289 183 194 183 182 181 183 183 185 186 187 185 185 182 183 186 186 185 184 183 184 184 184 182 180 177 176 174 174 173 172 171
120 87 175 186 245 270 251 299 221 267 284 298 311 256 286 348 11 130 183 180 179 187 187 186 186 186 189 189 187 186 186 186 188 188 187 185 186 187 189 190 191 190 187 186 186 185 184 183 183
130 92 134 229 222 265 245 239 231 273 283 300 309 360 334 331 265 183 178 182 186 192 192 193 190 190 191 192 192 192 193 194 194 193 194 192 192 194 196 198 200 200 199 197 198 198 197 197 198
130 74 192 222 171 244 254 300 282 266 272 288 297 292 325 5 255 212 193 190 198 202 202 200 196 195 194 195 196 196 197 199 200 198 199 202 202 204 207 208 209 209 207 207 208 209 209 208 211
113 147 213 201 187 212 246 250 281 267 289 305 298 291 270 289 326 231 206 199 206 208 206 202 200 200 200 200 202 202 203 204 206 207 210 212 213 215 218 220 221 219 218 217 217 218 218 220 222
165 210 193 224 221 222 246 249 264 283 293 280 277 296 282 240 242 241 235 220 215 214 213 207 205 203 205 206 207 209 209 210 212 214 214 216 219 220 223 225 227 229 230 228 228 227 228 230 231
166 232 212 237 216 213 235 259 247 259 261 277 286 284 296 237 208 213 224 253 251 223 218 214 210 208 212 215 221 221 219 217 218 220 222 224 225 227 229 231 232 233 231 233 236 238 237 238 239
213 241 234 246 250 246 257 256 247 287 279 282 282 281 276 218 191 172 178 231 226 254 232 219 213 213 210 213 220 237 228 227 227 225 223 227 233 236 238 239 236 237 238 237 236 239 240 240 241
210 242 273 282 268 245 200 264 165 270 272 275 282 282 262 237 236 252 260 289 259 251 235 230 227 221 217 212 220 226 233 242 233 231 231 231 233 241 242 243 245 245 244 243 244 244 246 247 247
259 283 325 281 295 242 194 294 206 260 268 271 274 266 251 253 223 231 266 281 282 267 241 235 228 231 231 230 230 230 227 233 242 234 235 238 238 241 247 245 249 250 250 250 249 250 250 252 250
335 57 6 297 15 309 148 263 262 256 247 252 262 261 258 245 235 231 234 268 281 277 258 244 235 233 233 233 234 233 231 232 230 235 236 240 243 252 255 250 251 257 252 252 255 257 257 257 256
12 252 245 312 220 99 189 281 258 286 251 248 254 253 252 256 247 218 215 262 246 272 268 250 244 237 234 232 236 234 232 232 238 239 242 239 251 259 256 254 258 261 259 257 258 258 262 266 268
244 272 285 255 274 12 248 253 277 293 243 236 245 257 255 248 253 232 204 216 229 248 248 248 248 247 245 239 241 239 235 246 249 242 239 262 277 276 268 276 270 265 263 262 264 265 268 271 272
195 251 267 271 259 251 254 275 282 300 245 208 228 243 268 282 258 219 207 215 219 225 236 249 247 235 243 244 244 247 255 249 245 241 255 267 282 281 279 284 284 281 284 281 280 276 276 277 278
221 244 266 285 270 172 293 281 289 311 334 254 237 248 261 283 247 217 221 227 236 225 208 214 224 224 220 229 239 247 251 256 258 248 268 268 278 282 288 292 281 249 302 300 292 292 299 294 287
236 201 248 218 336 267 298 307 329 306 13 8 30 12 318 290 245 213 188 186 189 195 197 201 210 217 228 237 242 247 253 253 254 255 260 266 265 268 272 273 280 277 258 260 281 274 288 284 291
261 214 234 241 129 232 349 265 300 331 343 14 15 25 356 335 176 158 134 123 140 156 192 208 216 228 250 246 250 247 256 260 263 269 272 270 271 276 278 276 273 273 271 268 261 264 255 274 276
232 219 197 188 156 155 329 91 264 337 359 25 32 88 84 85 100 104 103 103 100 102 103 107 109 125 148 166 293 290 285 286 281 279 279 280 283 285 287 287 285 272 269 275 271 264 265 265 263
295 80 44 44 93 70 233 137 289 277 211 104 54 83 77 85 93 102 106 116 113 115 121 127 136 165 194 219 238 249 258 270 277 277 277 276 276 277 278 281 280 277 271 266 268 270 269 269 270
97 68 339 339 346 220 188 83 235 254 292 151 120 81 88 88 84 80 84 88 97 111 126 150 181 209 229 243 251 252 254 257 263 267 271 272 272 273 277 277 274 272 270 270 267 263 264 266 269
161 154 159 213 209 251 34 232 251 72 81 91 103 99 91 83 84 79 68 68 70 69 305 256 260 263 263 258 256 259 264 266 266 266 267 268 268 267 268 267 271 272 274 272 271 270 270 271 270
161 178 176 105 19 65 235 274 17 66 68 82 84 90 84 77 66 55 38 19 3 347 332 316 300 295 293 285 281 278 275 274 273 271 269 269 269 270 267 263 263 262 269 269 270 271 273 275 276
154 151 114 344 173 243 276 234 219 144 148 120 94 86 77 64 47 23 0 347 339 330 321 314 307 302 295 292 289 286 282 280 278 276 273 271 271 270 270 267 263 258 253 258 261 263 265 268 270
116 126 82 119 127 182 200 251 332 205 176 152 131 93 55 39 19 358 348 341 334 327 321 314 309 304 301 298 296 296 294 292 290 287 283 280 276 272 269 268 266 262 256 250 252 257 262 262 266
164 176 143 152 223 221 147 269 26 61 100 126 93 29 28 22 5 354 346 339 335 330 327 322 318 314 310 306 303 301 300 298 295 292 290 287 283 278 272 267 262 262 260 254 250 253 256 263 265